User: anonymous   Login
Location: Unspecified
(0.0000°N, 0.0000°E)
Time: 09:10:15
(UTC+00:00)
Language:

LEMUR 2 THERESACONDOR - Orbit

View from above orbital plane
View from above orbital plane
View from above satellite
View from above satellite

Ground track
Ground track

The orbit data is extracted from the following two-line orbital elements,

1 41485U 98067JF  17086.91328357 +.01931357 +42363-2 +11328-2 0  9998
2 41485 051.6167 045.8818 0003414 182.5817 177.6039 16.19053456049239
Epoch (UTC): 27 March 2017 21:55:07
Eccentricity: 0.0003414
inclination: 51.6167°
perigee height: 220 km
apogee height: 224 km
right ascension of ascending node: 45.8818°
argument of perigee: 182.5817°
revolutions per day: 16.19053456
mean anomaly at epoch: 177.6039°
orbit number at epoch: 4923

The dashed part of the orbit path shows where the satellite is in the earth's shadow,  

DLR